Year,Month,Day,Hour,Minute,Value (Times are PST for temperature in C)
2018,05,24,00,15,19.90
2018,05,24,00,16,19.90
2018,05,24,00,17,19.90
2018,05,24,00,18,20.00
2018,05,24,00,19,20.00
2018,05,24,00,20,20.00
2018,05,24,00,21,20.00
2018,05,24,00,22,20.00
2018,05,24,00,23,20.00
2018,05,24,00,24,20.00
2018,05,24,00,25,20.00
2018,05,24,00,26,20.00
2018,05,24,00,27,20.00
2018,05,24,00,28,20.00
2018,05,24,00,29,20.00
2018,05,24,00,30,20.00
2018,05,24,00,31,20.00
2018,05,24,00,32,20.00
2018,05,24,00,33,20.10
2018,05,24,00,34,20.10
2018,05,24,00,35,20.10
2018,05,24,00,36,20.10
2018,05,24,00,37,20.00
2018,05,24,00,38,20.00
2018,05,24,00,39,20.00
2018,05,24,00,40,20.00
2018,05,24,00,41,20.00
2018,05,24,00,42,20.00
2018,05,24,00,43,20.10
2018,05,24,00,44,20.10
2018,05,24,00,45,20.00
2018,05,24,00,46,20.00
2018,05,24,00,47,20.00
2018,05,24,00,48,20.00
2018,05,24,00,49,20.00
2018,05,24,00,50,20.00
2018,05,24,00,51,20.00
2018,05,24,00,52,20.00
2018,05,24,00,53,20.00
2018,05,24,00,54,20.00
2018,05,24,00,55,20.00
2018,05,24,00,56,20.00
2018,05,24,00,57,20.00
2018,05,24,00,58,20.00
2018,05,24,00,59,20.00
2018,05,24,01,00,19.90
2018,05,24,01,01,19.90
2018,05,24,01,02,19.90
2018,05,24,01,03,19.90
2018,05,24,01,04,19.90
2018,05,24,01,05,19.90
2018,05,24,01,06,19.90
2018,05,24,01,07,19.90
2018,05,24,01,08,19.80
2018,05,24,01,09,19.80
2018,05,24,01,10,19.80
2018,05,24,01,11,19.80
2018,05,24,01,12,19.80
2018,05,24,01,13,19.80
2018,05,24,01,14,19.80
2018,05,24,01,15,19.80
2018,05,24,01,16,19.80
2018,05,24,01,17,19.70
2018,05,24,01,18,19.70
2018,05,24,01,19,19.70
2018,05,24,01,20,19.60
2018,05,24,01,21,19.60
2018,05,24,01,22,19.60
2018,05,24,01,23,19.50
2018,05,24,01,24,19.40
2018,05,24,01,25,19.40
2018,05,24,01,26,19.40
2018,05,24,01,27,19.30
2018,05,24,01,28,19.30
2018,05,24,01,29,19.30
2018,05,24,01,30,19.30
2018,05,24,01,31,19.20
2018,05,24,01,32,19.20
2018,05,24,01,33,19.20
2018,05,24,01,34,19.20
2018,05,24,01,35,19.10
2018,05,24,01,36,19.10
2018,05,24,01,37,19.10
2018,05,24,01,38,19.00
2018,05,24,01,39,19.00
2018,05,24,01,40,18.90
2018,05,24,01,41,18.90
2018,05,24,01,42,18.90
2018,05,24,01,43,18.90
2018,05,24,01,44,18.90
2018,05,24,01,45,18.90
2018,05,24,01,46,18.90
2018,05,24,01,47,18.80
2018,05,24,01,48,18.80
2018,05,24,01,49,18.80
2018,05,24,01,50,18.80
2018,05,24,01,51,18.80
2018,05,24,01,52,18.70
2018,05,24,01,53,18.70
2018,05,24,01,54,18.70
2018,05,24,01,55,18.70
2018,05,24,01,56,18.70
2018,05,24,01,57,18.70
2018,05,24,01,58,18.60
2018,05,24,01,59,18.60
2018,05,24,02,00,18.60
2018,05,24,02,01,18.60
2018,05,24,02,02,18.60
2018,05,24,02,03,18.50
2018,05,24,02,04,18.50
2018,05,24,02,05,18.40
2018,05,24,02,06,18.40
2018,05,24,02,07,18.40
2018,05,24,02,08,18.40
2018,05,24,02,09,18.30
2018,05,24,02,10,18.30
2018,05,24,02,11,18.30
2018,05,24,02,12,18.30
2018,05,24,02,13,18.20
2018,05,24,02,14,18.20
2018,05,24,02,15,18.20
2018,05,24,02,16,18.10
2018,05,24,02,17,18.10
2018,05,24,02,18,18.10
2018,05,24,02,19,18.00
2018,05,24,02,20,17.90
2018,05,24,02,21,17.80
2018,05,24,02,22,17.80
2018,05,24,02,23,17.80
2018,05,24,02,24,17.70
2018,05,24,02,25,17.60
2018,05,24,02,26,17.60
2018,05,24,02,27,17.60
2018,05,24,02,28,17.50
2018,05,24,02,29,17.50
2018,05,24,02,30,17.40
2018,05,24,02,31,17.40
2018,05,24,02,32,17.30
2018,05,24,02,33,17.30
2018,05,24,02,34,17.30
2018,05,24,02,35,17.20
2018,05,24,02,36,17.20
2018,05,24,02,37,17.10
2018,05,24,02,38,17.10
2018,05,24,02,39,17.10
2018,05,24,02,40,17.00
2018,05,24,02,41,17.00
2018,05,24,02,42,16.90
2018,05,24,02,43,16.90
2018,05,24,02,44,16.80
2018,05,24,02,45,16.80
2018,05,24,02,46,16.70
2018,05,24,02,47,16.70
2018,05,24,02,48,16.70
2018,05,24,02,49,16.70
2018,05,24,02,50,16.60
2018,05,24,02,51,16.60
2018,05,24,02,52,16.50
2018,05,24,02,53,16.50
2018,05,24,02,54,16.50
2018,05,24,02,55,16.40
2018,05,24,02,56,16.40
2018,05,24,02,57,16.40
2018,05,24,02,58,16.30
2018,05,24,02,59,16.30
2018,05,24,03,00,16.20
2018,05,24,03,01,16.20
2018,05,24,03,02,16.20
2018,05,24,03,03,16.10
2018,05,24,03,04,16.10
2018,05,24,03,05,16.00
2018,05,24,03,06,16.00
2018,05,24,03,07,15.90
2018,05,24,03,08,15.90
2018,05,24,03,09,15.90
2018,05,24,03,10,15.80
2018,05,24,03,11,15.80
2018,05,24,03,12,15.70
2018,05,24,03,13,15.70
2018,05,24,03,14,15.70
2018,05,24,03,15,15.70
2018,05,24,03,16,15.60
2018,05,24,03,17,15.60
2018,05,24,03,18,15.60
2018,05,24,03,19,15.60
2018,05,24,03,20,15.60
2018,05,24,03,21,15.50
2018,05,24,03,22,15.50
2018,05,24,03,23,15.50
2018,05,24,03,24,15.50
2018,05,24,03,25,15.40
2018,05,24,03,26,15.40
2018,05,24,03,27,15.40
2018,05,24,03,28,15.40
2018,05,24,03,29,15.40
2018,05,24,03,30,15.40
2018,05,24,03,31,15.30
2018,05,24,03,32,15.30
2018,05,24,03,33,15.30
2018,05,24,03,34,15.20
2018,05,24,03,35,15.20
2018,05,24,03,36,15.20
2018,05,24,03,37,15.10
2018,05,24,03,38,15.00
2018,05,24,03,39,15.00
2018,05,24,03,40,15.00
2018,05,24,03,41,15.00
2018,05,24,03,42,15.00
2018,05,24,03,43,15.00
2018,05,24,03,44,15.00
2018,05,24,03,45,15.00
2018,05,24,03,46,15.00
2018,05,24,03,47,15.00
2018,05,24,03,48,15.00
2018,05,24,03,49,15.00
2018,05,24,03,50,15.00
2018,05,24,03,51,15.00
2018,05,24,03,52,14.90
2018,05,24,03,53,14.90
2018,05,24,03,54,14.80
2018,05,24,03,55,14.80
2018,05,24,03,56,14.80
2018,05,24,03,57,14.80
2018,05,24,03,58,14.70
2018,05,24,03,59,14.70
2018,05,24,04,00,14.70
2018,05,24,04,01,14.60
2018,05,24,04,02,14.60
2018,05,24,04,03,14.60
2018,05,24,04,04,14.50
2018,05,24,04,05,14.50
2018,05,24,04,06,14.40
2018,05,24,04,07,14.40
2018,05,24,04,08,14.40
2018,05,24,04,09,14.40
2018,05,24,04,10,14.40
2018,05,24,04,11,14.40
2018,05,24,04,12,14.30
2018,05,24,04,13,14.30
2018,05,24,04,14,14.30
2018,05,24,04,15,14.30
2018,05,24,04,16,14.20
2018,05,24,04,17,14.20
2018,05,24,04,18,14.20
2018,05,24,04,19,14.20
2018,05,24,04,20,14.20
2018,05,24,04,21,14.10
2018,05,24,04,22,14.10
2018,05,24,04,23,14.10
2018,05,24,04,24,14.10
2018,05,24,04,25,14.00
2018,05,24,04,26,14.00
2018,05,24,04,27,14.00
2018,05,24,04,28,14.00
2018,05,24,04,29,14.00
2018,05,24,04,30,13.90
2018,05,24,04,31,13.90
2018,05,24,04,32,13.90
2018,05,24,04,33,13.90
2018,05,24,04,34,13.90
2018,05,24,04,35,13.90
2018,05,24,04,36,13.90
2018,05,24,04,37,13.90
2018,05,24,04,38,13.90
2018,05,24,04,39,13.90
2018,05,24,04,40,13.90
2018,05,24,04,41,13.90
2018,05,24,04,42,13.90
2018,05,24,04,43,13.80
2018,05,24,04,44,13.80
2018,05,24,04,45,13.80
2018,05,24,04,46,13.80
2018,05,24,04,47,13.80
2018,05,24,04,48,13.80
2018,05,24,04,49,13.70
2018,05,24,04,50,13.70
2018,05,24,04,51,13.70
2018,05,24,04,52,13.70
2018,05,24,04,53,13.60
2018,05,24,04,54,13.60
2018,05,24,04,55,13.60
2018,05,24,04,56,13.60
2018,05,24,04,57,13.60
2018,05,24,04,58,13.60
2018,05,24,04,59,13.50
2018,05,24,05,00,13.50
2018,05,24,05,01,13.50
2018,05,24,05,02,13.40
2018,05,24,05,03,13.40
2018,05,24,05,04,13.40
2018,05,24,05,05,13.40
2018,05,24,05,06,13.40
2018,05,24,05,07,13.40
2018,05,24,05,08,13.30
2018,05,24,05,09,13.30
2018,05,24,05,10,13.30
2018,05,24,05,11,13.30
2018,05,24,05,12,13.30
2018,05,24,05,13,13.30
2018,05,24,05,14,13.30
2018,05,24,05,15,13.30
2018,05,24,05,16,13.30
2018,05,24,05,17,13.30
2018,05,24,05,18,13.20
2018,05,24,05,19,13.20
2018,05,24,05,20,13.20
2018,05,24,05,21,13.20
2018,05,24,05,22,13.20
2018,05,24,05,23,13.20
2018,05,24,05,24,13.20
2018,05,24,05,25,13.20
2018,05,24,05,26,13.20
2018,05,24,05,27,13.10
2018,05,24,05,28,13.10
2018,05,24,05,29,13.10
2018,05,24,05,30,13.10
2018,05,24,05,31,13.10
2018,05,24,05,32,13.10
2018,05,24,05,33,13.10
2018,05,24,05,34,13.10
2018,05,24,05,35,13.10
2018,05,24,05,36,13.10
2018,05,24,05,37,13.10
2018,05,24,05,38,13.20
2018,05,24,05,39,13.20
2018,05,24,05,40,13.20
2018,05,24,05,41,13.20
2018,05,24,05,42,13.20
2018,05,24,05,43,13.30
2018,05,24,05,44,13.30
2018,05,24,05,45,13.30
2018,05,24,05,46,13.30
2018,05,24,05,47,13.30
2018,05,24,05,48,13.30
2018,05,24,05,49,13.30
2018,05,24,05,50,13.30
2018,05,24,05,51,13.30
2018,05,24,05,52,13.30
2018,05,24,05,53,13.30
2018,05,24,05,54,13.30
2018,05,24,05,55,13.30
2018,05,24,05,56,13.30
2018,05,24,05,57,13.30
2018,05,24,05,58,13.30
2018,05,24,05,59,13.20
2018,05,24,06,00,13.20
2018,05,24,06,01,13.20
2018,05,24,06,02,13.20
2018,05,24,06,03,13.20
2018,05,24,06,04,13.20
2018,05,24,06,05,13.20
2018,05,24,06,06,13.20
2018,05,24,06,07,13.20
2018,05,24,06,08,13.10
2018,05,24,06,09,13.10
2018,05,24,06,10,13.10
2018,05,24,06,11,13.10
2018,05,24,06,12,13.10
2018,05,24,06,13,13.10
2018,05,24,06,14,13.10
2018,05,24,06,15,13.10
2018,05,24,06,16,13.10
2018,05,24,06,17,13.10
2018,05,24,06,18,13.10
2018,05,24,06,19,13.10
2018,05,24,06,20,13.10
2018,05,24,06,21,13.20
2018,05,24,06,22,13.20
2018,05,24,06,23,13.20
2018,05,24,06,24,13.20
2018,05,24,06,25,13.20
2018,05,24,06,26,13.20
2018,05,24,06,27,13.30
2018,05,24,06,28,13.30
2018,05,24,06,29,13.30
2018,05,24,06,30,13.30
2018,05,24,06,31,13.40
2018,05,24,06,32,13.50
2018,05,24,06,33,13.50
2018,05,24,06,34,13.50
2018,05,24,06,35,13.60
2018,05,24,06,36,13.70
2018,05,24,06,37,13.70
2018,05,24,06,38,13.80
2018,05,24,06,39,13.90
2018,05,24,06,40,13.90
2018,05,24,06,41,14.00
2018,05,24,06,42,14.00
2018,05,24,06,43,14.10
2018,05,24,06,44,14.10
2018,05,24,06,45,14.20
2018,05,24,06,46,14.20
2018,05,24,06,47,14.30
2018,05,24,06,48,14.30
2018,05,24,06,49,14.30
2018,05,24,06,50,14.30
2018,05,24,06,51,14.40
2018,05,24,06,52,14.40
2018,05,24,06,53,14.40
2018,05,24,06,54,14.50
2018,05,24,06,55,14.50
2018,05,24,06,56,14.60
2018,05,24,06,57,14.70
2018,05,24,06,58,14.70
2018,05,24,06,59,14.80
2018,05,24,07,00,14.90
2018,05,24,07,01,14.90
2018,05,24,07,02,15.00
2018,05,24,07,03,15.00
2018,05,24,07,04,15.00
2018,05,24,07,05,15.10
2018,05,24,07,06,15.20
2018,05,24,07,07,15.20
2018,05,24,07,08,15.20
2018,05,24,07,09,15.30
2018,05,24,07,10,15.30
2018,05,24,07,11,15.40
2018,05,24,07,12,15.40
2018,05,24,07,13,15.50
2018,05,24,07,14,15.50
2018,05,24,07,15,15.60
2018,05,24,07,16,15.60
2018,05,24,07,17,15.70
2018,05,24,07,18,15.80
2018,05,24,07,19,15.90
2018,05,24,07,20,16.00
2018,05,24,07,21,16.10
2018,05,24,07,22,16.20
2018,05,24,07,23,16.30
2018,05,24,07,24,16.30
2018,05,24,07,25,16.40
2018,05,24,07,26,16.50
2018,05,24,07,27,16.50
2018,05,24,07,28,16.60
2018,05,24,07,29,16.60
2018,05,24,07,30,16.50
2018,05,24,07,31,16.50
2018,05,24,07,32,16.50
2018,05,24,07,33,16.50
2018,05,24,07,34,16.60
2018,05,24,07,35,16.60
2018,05,24,07,36,16.60
2018,05,24,07,37,16.60
2018,05,24,07,38,16.60
2018,05,24,07,39,16.60
2018,05,24,07,40,16.60
2018,05,24,07,41,16.60
2018,05,24,07,42,16.70
2018,05,24,07,43,16.80
2018,05,24,07,44,16.80
2018,05,24,07,45,16.80
2018,05,24,07,46,16.80
2018,05,24,07,47,16.80
2018,05,24,07,48,16.80
2018,05,24,07,49,16.80
2018,05,24,07,50,16.80
2018,05,24,07,51,16.70
2018,05,24,07,52,16.70
2018,05,24,07,53,16.60
2018,05,24,07,54,16.60
2018,05,24,07,55,16.70
2018,05,24,07,56,16.70
2018,05,24,07,57,16.80
2018,05,24,07,58,16.90
2018,05,24,07,59,17.00
2018,05,24,08,00,17.00
2018,05,24,08,01,17.10
2018,05,24,08,02,17.10
2018,05,24,08,03,17.20
2018,05,24,08,04,17.20
2018,05,24,08,05,17.10
2018,05,24,08,06,17.10
2018,05,24,08,07,17.10
2018,05,24,08,08,17.10
2018,05,24,08,09,17.00
2018,05,24,08,10,17.00
2018,05,24,08,11,16.90
2018,05,24,08,12,17.00
2018,05,24,08,13,17.00
2018,05,24,08,14,17.10
2018,05,24,08,15,17.10
2018,05,24,08,16,17.10
2018,05,24,08,17,17.00
2018,05,24,08,18,17.00
2018,05,24,08,19,16.90
2018,05,24,08,20,17.00
2018,05,24,08,21,17.10
2018,05,24,08,22,17.20
2018,05,24,08,23,17.20
2018,05,24,08,24,17.20
2018,05,24,08,25,17.20
2018,05,24,08,26,17.30
2018,05,24,08,27,17.30
2018,05,24,08,28,17.30
2018,05,24,08,29,17.20
2018,05,24,08,30,17.20
2018,05,24,08,31,17.10
2018,05,24,08,32,17.10
2018,05,24,08,33,17.10
2018,05,24,08,34,17.20
2018,05,24,08,35,17.20
2018,05,24,08,36,17.20
2018,05,24,08,37,17.20
2018,05,24,08,38,17.20
2018,05,24,08,39,17.20
2018,05,24,08,40,17.30
2018,05,24,08,41,17.30
2018,05,24,08,42,17.40
2018,05,24,08,43,17.30
2018,05,24,08,44,17.30
2018,05,24,08,45,17.20
2018,05,24,08,46,17.10
2018,05,24,08,47,17.10
2018,05,24,08,48,17.10
2018,05,24,08,49,17.20
2018,05,24,08,50,17.30
2018,05,24,08,51,17.50
2018,05,24,08,52,17.60
2018,05,24,08,53,17.60
2018,05,24,08,54,17.70
2018,05,24,08,55,17.70
2018,05,24,08,56,17.80
2018,05,24,08,57,17.80
2018,05,24,08,58,17.80
2018,05,24,08,59,17.80
2018,05,24,09,00,17.80
2018,05,24,09,01,17.80
2018,05,24,09,02,17.70
2018,05,24,09,03,17.60
2018,05,24,09,04,17.50
2018,05,24,09,05,17.50
2018,05,24,09,06,17.60
2018,05,24,09,07,17.60
2018,05,24,09,08,17.50
2018,05,24,09,09,17.40
2018,05,24,09,10,17.30
2018,05,24,09,11,17.20
2018,05,24,09,12,17.20
2018,05,24,09,13,17.20
2018,05,24,09,14,17.20
2018,05,24,09,15,17.30
2018,05,24,09,16,17.40
2018,05,24,09,17,17.50
2018,05,24,09,18,17.50
2018,05,24,09,19,17.50
2018,05,24,09,20,17.40
2018,05,24,09,21,17.30
2018,05,24,09,22,17.30
2018,05,24,09,23,17.30
2018,05,24,09,24,17.20
2018,05,24,09,25,17.20
2018,05,24,09,26,17.10
2018,05,24,09,27,17.10
2018,05,24,09,28,17.20
2018,05,24,09,29,17.30
2018,05,24,09,30,17.40
2018,05,24,09,31,17.50
2018,05,24,09,32,17.60
2018,05,24,09,33,17.80
2018,05,24,09,34,17.90
2018,05,24,09,35,18.00
2018,05,24,09,36,18.00
2018,05,24,09,37,17.90
2018,05,24,09,38,17.80
2018,05,24,09,39,17.80
2018,05,24,09,40,17.80
2018,05,24,09,41,17.80
2018,05,24,09,42,17.80
2018,05,24,09,43,17.80
2018,05,24,09,44,17.70
2018,05,24,09,45,17.70
2018,05,24,09,46,17.60
2018,05,24,09,47,17.50
2018,05,24,09,48,17.50
2018,05,24,09,49,17.40
2018,05,24,09,50,17.40
2018,05,24,09,51,17.30
2018,05,24,09,52,17.30
2018,05,24,09,53,17.30
2018,05,24,09,54,17.40
2018,05,24,09,55,17.40
2018,05,24,09,56,17.30
2018,05,24,09,57,17.30
2018,05,24,09,58,17.30
2018,05,24,09,59,17.30
2018,05,24,10,00,17.30
2018,05,24,10,01,17.30
2018,05,24,10,02,17.20
2018,05,24,10,03,17.10
2018,05,24,10,04,17.00
2018,05,24,10,05,17.00
2018,05,24,10,06,16.90
2018,05,24,10,07,16.90
2018,05,24,10,08,16.80
2018,05,24,10,09,16.60
2018,05,24,10,10,16.50
2018,05,24,10,11,16.40
2018,05,24,10,12,16.30
2018,05,24,10,13,16.30
2018,05,24,10,14,16.40
2018,05,24,10,15,16.40
2018,05,24,10,16,16.40
2018,05,24,10,17,16.50
2018,05,24,10,18,16.50
2018,05,24,10,19,16.60
2018,05,24,10,20,16.60
2018,05,24,10,21,16.70
2018,05,24,10,22,16.80
2018,05,24,10,23,16.80
2018,05,24,10,24,16.80
2018,05,24,10,25,16.80
2018,05,24,10,26,16.80
2018,05,24,10,27,16.70
2018,05,24,10,28,16.50
2018,05,24,10,29,16.50
2018,05,24,10,30,16.40
2018,05,24,10,31,16.40
2018,05,24,10,32,16.40
2018,05,24,10,33,16.30
2018,05,24,10,34,16.30
2018,05,24,10,35,16.30
2018,05,24,10,36,16.20
2018,05,24,10,37,16.20
2018,05,24,10,38,16.10
2018,05,24,10,39,16.10
2018,05,24,10,40,16.10
2018,05,24,10,41,16.10
2018,05,24,10,42,16.10
2018,05,24,10,43,16.10
2018,05,24,10,44,16.10
2018,05,24,10,45,16.00
2018,05,24,10,46,15.90
2018,05,24,10,47,16.00
2018,05,24,10,48,16.00
2018,05,24,10,49,16.00
2018,05,24,10,50,16.00
2018,05,24,10,51,16.00
2018,05,24,10,52,16.00
2018,05,24,10,53,16.10
2018,05,24,10,54,16.20
2018,05,24,10,55,16.40
2018,05,24,10,56,16.50
2018,05,24,10,57,16.50
2018,05,24,10,58,16.60
2018,05,24,10,59,16.80
2018,05,24,11,00,16.90
2018,05,24,11,01,16.90
2018,05,24,11,02,17.00
2018,05,24,11,03,17.10
2018,05,24,11,04,17.00
2018,05,24,11,05,17.00
2018,05,24,11,06,16.90
2018,05,24,11,07,16.90
2018,05,24,11,08,16.90
2018,05,24,11,09,16.90
2018,05,24,11,10,17.00
2018,05,24,11,11,17.00
2018,05,24,11,12,17.10
2018,05,24,11,13,17.30
2018,05,24,11,14,17.40
2018,05,24,11,15,17.50
2018,05,24,11,16,17.50
2018,05,24,11,17,17.50
2018,05,24,11,18,17.60
2018,05,24,11,19,17.60
2018,05,24,11,20,17.60
2018,05,24,11,21,17.60
2018,05,24,11,22,17.50
2018,05,24,11,23,17.40
2018,05,24,11,24,17.40
2018,05,24,11,25,17.40
2018,05,24,11,26,17.40
2018,05,24,11,27,17.20
2018,05,24,11,28,17.00
2018,05,24,11,29,16.80
2018,05,24,11,30,16.70
2018,05,24,11,31,16.80
2018,05,24,11,32,16.80
2018,05,24,11,33,16.70
2018,05,24,11,34,16.50
2018,05,24,11,35,16.30
2018,05,24,11,36,16.10
2018,05,24,11,37,16.00
2018,05,24,11,38,16.00
2018,05,24,11,39,16.00
2018,05,24,11,40,16.00
2018,05,24,11,41,16.10
2018,05,24,11,42,16.10
2018,05,24,11,43,16.10
2018,05,24,11,44,16.10
2018,05,24,11,45,16.20
2018,05,24,11,46,16.20
2018,05,24,11,47,16.30
2018,05,24,11,48,16.40
2018,05,24,11,49,16.50
2018,05,24,11,50,16.70
2018,05,24,11,51,16.80
2018,05,24,11,52,16.80
2018,05,24,11,53,16.90
2018,05,24,11,54,17.00
2018,05,24,11,55,17.10
2018,05,24,11,56,17.00
2018,05,24,11,57,17.00
2018,05,24,11,58,17.10
2018,05,24,11,59,17.10
2018,05,24,12,00,17.10
2018,05,24,12,01,17.10
2018,05,24,12,02,17.20
2018,05,24,12,03,17.20
2018,05,24,12,04,17.20
2018,05,24,12,05,17.20
2018,05,24,12,06,17.20
2018,05,24,12,07,17.20
2018,05,24,12,08,17.20
2018,05,24,12,09,17.20
2018,05,24,12,10,17.20
2018,05,24,12,11,17.20
2018,05,24,12,12,17.30
2018,05,24,12,13,17.30
2018,05,24,12,14,17.20
2018,05,24,12,15,17.30
2018,05,24,12,16,17.30
2018,05,24,12,17,17.40
2018,05,24,12,18,17.40
2018,05,24,12,19,17.40
2018,05,24,12,20,17.40
2018,05,24,12,21,17.50
2018,05,24,12,22,17.50
2018,05,24,12,23,17.50
2018,05,24,12,24,17.30
2018,05,24,12,25,17.30
2018,05,24,12,26,17.20
2018,05,24,12,27,17.20
2018,05,24,12,28,17.20
2018,05,24,12,29,17.20
2018,05,24,12,30,17.30
2018,05,24,12,31,17.30
2018,05,24,12,32,17.40
2018,05,24,12,33,17.50
2018,05,24,12,34,17.50
2018,05,24,12,35,17.50
2018,05,24,12,36,17.50
2018,05,24,12,37,17.50
2018,05,24,12,38,17.50
2018,05,24,12,39,17.40
2018,05,24,12,40,17.40
2018,05,24,12,41,17.40
2018,05,24,12,42,17.40
2018,05,24,12,43,17.40
2018,05,24,12,44,17.30
2018,05,24,12,45,17.30
2018,05,24,12,46,17.20
2018,05,24,12,47,17.20
2018,05,24,12,48,17.20
2018,05,24,12,49,17.20
2018,05,24,12,50,17.30
2018,05,24,12,51,17.30
2018,05,24,12,52,17.40
2018,05,24,12,53,17.40
2018,05,24,12,54,17.40
2018,05,24,12,55,17.40
2018,05,24,12,56,17.30
2018,05,24,12,57,17.20
2018,05,24,12,58,17.30
2018,05,24,12,59,17.30
2018,05,24,13,00,17.30
2018,05,24,13,01,17.40
2018,05,24,13,02,17.40
2018,05,24,13,03,17.40
2018,05,24,13,04,17.40
2018,05,24,13,05,17.40
2018,05,24,13,06,17.40
2018,05,24,13,07,17.30
2018,05,24,13,08,17.30
2018,05,24,13,09,17.30
2018,05,24,13,10,17.30
2018,05,24,13,11,17.30
2018,05,24,13,12,17.30
2018,05,24,13,13,17.20
2018,05,24,13,14,17.10
2018,05,24,13,15,17.10
2018,05,24,13,16,17.30
2018,05,24,13,17,17.30
2018,05,24,13,18,17.40
2018,05,24,13,19,17.50
2018,05,24,13,20,17.60
2018,05,24,13,21,17.70
2018,05,24,13,22,17.80
2018,05,24,13,23,18.00
2018,05,24,13,24,18.10
2018,05,24,13,25,18.20
2018,05,24,13,26,18.20
2018,05,24,13,27,18.20
2018,05,24,13,28,18.10
2018,05,24,13,29,18.00
2018,05,24,13,30,17.80
2018,05,24,13,31,17.70
2018,05,24,13,32,17.60
2018,05,24,13,33,17.50
2018,05,24,13,34,17.40
2018,05,24,13,35,17.40
2018,05,24,13,36,17.30
2018,05,24,13,37,17.20
2018,05,24,13,38,17.10
2018,05,24,13,39,17.10
2018,05,24,13,40,17.00
2018,05,24,13,41,17.00
2018,05,24,13,42,16.90
2018,05,24,13,43,16.90
2018,05,24,13,44,16.80
2018,05,24,13,45,16.70
2018,05,24,13,46,16.60
2018,05,24,13,47,16.50
2018,05,24,13,48,16.60
2018,05,24,13,49,16.60
2018,05,24,13,50,16.60
2018,05,24,13,51,16.60
2018,05,24,13,52,16.50
2018,05,24,13,53,16.40
2018,05,24,13,54,16.40
2018,05,24,13,55,16.30
2018,05,24,13,56,16.30
2018,05,24,13,57,16.30
2018,05,24,13,58,16.30
2018,05,24,13,59,16.30
2018,05,24,14,00,16.20
2018,05,24,14,01,16.20
2018,05,24,14,02,16.20
2018,05,24,14,03,16.20
2018,05,24,14,04,16.20
2018,05,24,14,05,16.20
2018,05,24,14,06,16.30
2018,05,24,14,07,16.40
2018,05,24,14,08,16.50
2018,05,24,14,09,16.60
2018,05,24,14,10,16.70
2018,05,24,14,11,16.80
2018,05,24,14,12,16.80
2018,05,24,14,13,16.80
2018,05,24,14,14,16.80
2018,05,24,14,15,16.90
2018,05,24,14,16,17.00
2018,05,24,14,17,17.00
2018,05,24,14,18,17.10
2018,05,24,14,19,17.10
2018,05,24,14,20,17.00
2018,05,24,14,21,17.00
2018,05,24,14,22,17.00
2018,05,24,14,23,17.10
2018,05,24,14,24,17.10
2018,05,24,14,25,17.20
2018,05,24,14,26,17.10
2018,05,24,14,27,17.00
2018,05,24,14,28,16.90
2018,05,24,14,29,16.90
2018,05,24,14,30,17.00
2018,05,24,14,31,17.00
2018,05,24,14,32,17.10
2018,05,24,14,33,17.20
2018,05,24,14,34,17.20
2018,05,24,14,35,17.30
2018,05,24,14,36,17.50
2018,05,24,14,37,17.50
2018,05,24,14,38,17.40
2018,05,24,14,39,17.40
2018,05,24,14,40,17.30
2018,05,24,14,41,17.20
2018,05,24,14,42,17.30
2018,05,24,14,43,17.30
2018,05,24,14,44,17.20
2018,05,24,14,45,17.20
2018,05,24,14,46,17.20
2018,05,24,14,47,17.30
2018,05,24,14,48,17.20
2018,05,24,14,49,17.20
2018,05,24,14,50,17.20
2018,05,24,14,51,17.20
2018,05,24,14,52,17.20
2018,05,24,14,53,17.20
2018,05,24,14,54,17.30
2018,05,24,14,55,17.30
2018,05,24,14,56,17.30
2018,05,24,14,57,17.30
2018,05,24,14,58,17.30
2018,05,24,14,59,17.40
2018,05,24,15,00,17.50
2018,05,24,15,01,17.40
2018,05,24,15,02,17.40
2018,05,24,15,03,17.50
2018,05,24,15,04,17.60
2018,05,24,15,05,17.70
2018,05,24,15,06,17.90
2018,05,24,15,07,18.00
2018,05,24,15,08,18.10
2018,05,24,15,09,18.20
2018,05,24,15,10,18.20
2018,05,24,15,11,18.20
2018,05,24,15,12,18.10
2018,05,24,15,13,18.10
2018,05,24,15,14,18.10
2018,05,24,15,15,18.10
2018,05,24,15,16,18.20
2018,05,24,15,17,18.20
2018,05,24,15,18,18.20
2018,05,24,15,19,18.30
2018,05,24,15,20,18.40
2018,05,24,15,21,18.40
2018,05,24,15,22,18.50
2018,05,24,15,23,18.60
2018,05,24,15,24,18.60
2018,05,24,15,25,18.50
2018,05,24,15,26,18.40
2018,05,24,15,27,18.40
2018,05,24,15,28,18.30
2018,05,24,15,29,18.40
2018,05,24,15,30,18.30
2018,05,24,15,31,18.30
2018,05,24,15,32,18.30
2018,05,24,15,33,18.40
2018,05,24,15,34,18.40
2018,05,24,15,35,18.40
2018,05,24,15,36,18.40
2018,05,24,15,37,18.50
2018,05,24,15,38,18.60
2018,05,24,15,39,18.60
2018,05,24,15,40,18.70
2018,05,24,15,41,18.80
2018,05,24,15,42,18.80
2018,05,24,15,43,18.80
2018,05,24,15,44,18.80
2018,05,24,15,45,18.90
2018,05,24,15,46,18.90
2018,05,24,15,47,18.90
2018,05,24,15,48,18.90
2018,05,24,15,49,18.90
2018,05,24,15,50,18.90
2018,05,24,15,51,18.80
2018,05,24,15,52,18.80
2018,05,24,15,53,18.80
2018,05,24,15,54,18.80
2018,05,24,15,55,18.80
2018,05,24,15,56,18.80
2018,05,24,15,57,18.80
2018,05,24,15,58,18.80
2018,05,24,15,59,18.90
2018,05,24,16,00,18.90
2018,05,24,16,01,18.90
2018,05,24,16,02,18.90
2018,05,24,16,03,18.90
2018,05,24,16,04,18.80
2018,05,24,16,05,18.60
2018,05,24,16,06,18.50
2018,05,24,16,07,18.40
2018,05,24,16,08,18.20
2018,05,24,16,09,18.10
2018,05,24,16,10,18.00
2018,05,24,16,11,18.00
2018,05,24,16,12,18.00
2018,05,24,16,13,17.90
2018,05,24,16,14,18.00
2018,05,24,16,15,18.00
2018,05,24,16,16,18.00
2018,05,24,16,17,18.10
2018,05,24,16,18,18.20
2018,05,24,16,19,18.30
2018,05,24,16,20,18.40
2018,05,24,16,21,18.50
2018,05,24,16,22,18.50
2018,05,24,16,23,18.40
2018,05,24,16,24,18.30
2018,05,24,16,25,18.40
2018,05,24,16,26,18.40
2018,05,24,16,27,18.30
2018,05,24,16,28,18.20
2018,05,24,16,29,18.20
2018,05,24,16,30,18.00
2018,05,24,16,31,17.80
2018,05,24,16,32,17.70
2018,05,24,16,33,17.60
2018,05,24,16,34,17.60
2018,05,24,16,35,17.60
2018,05,24,16,36,17.60
2018,05,24,16,37,17.70
2018,05,24,16,38,17.80
2018,05,24,16,39,17.70
2018,05,24,16,40,17.70
2018,05,24,16,41,17.80
2018,05,24,16,42,17.70
2018,05,24,16,43,17.70
2018,05,24,16,44,17.70
2018,05,24,16,45,17.80
2018,05,24,16,46,17.80
2018,05,24,16,47,17.90
2018,05,24,16,48,18.00
2018,05,24,16,49,18.00
2018,05,24,16,50,18.10
2018,05,24,16,51,18.10
2018,05,24,16,52,18.20
2018,05,24,16,53,18.20
2018,05,24,16,54,18.30
2018,05,24,16,55,18.20
2018,05,24,16,56,18.30
2018,05,24,16,57,18.30
2018,05,24,16,58,18.20
2018,05,24,16,59,18.20
2018,05,24,17,00,18.20
2018,05,24,17,01,18.30
2018,05,24,17,02,18.40
2018,05,24,17,03,18.40
2018,05,24,17,04,18.40
2018,05,24,17,05,18.30
2018,05,24,17,06,18.20
2018,05,24,17,07,18.00
2018,05,24,17,08,17.80
2018,05,24,17,09,17.70
2018,05,24,17,10,17.60
2018,05,24,17,11,17.50
2018,05,24,17,12,17.50
2018,05,24,17,13,17.40
2018,05,24,17,14,17.40
2018,05,24,17,15,17.40
2018,05,24,17,16,17.40
2018,05,24,17,17,17.50
2018,05,24,17,18,17.70
2018,05,24,17,19,17.80
2018,05,24,17,20,18.00
2018,05,24,17,21,18.10
2018,05,24,17,22,18.20
2018,05,24,17,23,18.30
2018,05,24,17,24,18.30
2018,05,24,17,25,18.30
2018,05,24,17,26,18.20
2018,05,24,17,27,18.10
2018,05,24,17,28,18.00
2018,05,24,17,29,17.90
2018,05,24,17,30,17.90
2018,05,24,17,31,17.90
2018,05,24,17,32,18.00
2018,05,24,17,33,18.00
2018,05,24,17,34,18.00